Weather History for Winchester, TN

Change the Weather History Date:

Monday, February 13, 2012

  Actual Average (KTHA) Record (KTHA)
Temperature  
Mean Temperature 29 °F -  
Max Temperature 44 °F 49 °F 46 °F (2014)
Min Temperature 14 °F 31 °F 23 °F (2014)
Degree Days  
Heating Degree Days 36    
Moisture  
Dew Point 19 °F    
Average Humidity 65    
Maximum Humidity 93    
Minimum Humidity 34    
Precipitation  
Precipitation 0.00 in - - ()
Sea Level Pressure  
Sea Level Pressure 30.19 in    
Wind  
Wind Speed 2 mph ()    
Max Wind Speed 14 mph    
Max Gust Speed -    
Visibility 10.0 miles    
Events      
Averages and records for this station are not official NWS values.
T = Trace of Precipitation, MM = Missing Value Source: Averaged Metar Reports

Daily Weather History Graph

Daily Weather History Graph

Search for Another Location

Airport:

Trip Planner

Search our weather history database for the weather conditions in past years. The results will help you decide how hot, cold, wet, or windy it might be!

Date:

Astronomy

Feb. 13, 2012 Rise Set
Actual Time 7:33 AM EST 6:24 PM EST
Civil Twilight 7:07 AM EST 6:50 PM EST
Nautical Twilight 6:37 AM EST 7:20 PM EST
Astronomical Twilight 6:07 AM EST 7:49 PM EST
Moon 12:03 AM EST (2/13) 10:49 AM EST (2/13)
Length of Visible Light 11h 43m
Length of Day
10h 51m
Waning Gibbous, 62% of the Moon is Illuminated
Feb 13
Waning Gibbous
Feb 14
Last Quarter
Feb 21
New
Feb 29
First Quarter
Mar 8
Full

Hourly Weather History & Observations

Time (EST) Temp. Windchill Dew Point Humidity Pressure Visibility Wind Dir Wind Speed Gust Speed Precip Events Conditions
12:15 AM 17.6 °F - 14.0 °F 86% 30.33 in 10.0 mi Calm Calm - N/A   Clear
12:55 AM 17.6 °F - 15.8 °F 93% 30.32 in 10.0 mi Calm Calm - N/A   Clear
1:55 AM 17.6 °F - 15.8 °F 93% 30.32 in 10.0 mi Calm Calm - N/A   Clear
2:15 AM 15.8 °F - 12.2 °F 86% 30.32 in 10.0 mi Calm Calm - N/A   Clear
2:35 AM 15.8 °F - 14.0 °F 93% 30.31 in 10.0 mi Calm Calm - N/A   Clear
2:55 AM 15.8 °F - 12.2 °F 86% 30.31 in 10.0 mi Calm Calm - N/A   Clear
3:15 AM 15.8 °F - 12.2 °F 86% 30.31 in 10.0 mi Calm Calm - N/A   Clear
3:35 AM 17.6 °F - 14.0 °F 86% 30.30 in 10.0 mi Calm Calm - N/A   Clear
3:55 AM 15.8 °F - 12.2 °F 86% 30.29 in 10.0 mi Calm Calm - N/A   Clear
4:15 AM 15.8 °F - 14.0 °F 93% 30.29 in 10.0 mi Calm Calm - N/A   Clear
4:35 AM 15.8 °F - 12.2 °F 86% 30.28 in 10.0 mi Calm Calm - N/A   Clear
4:55 AM 14.0 °F - 12.2 °F 93% 30.29 in 10.0 mi Calm Calm - N/A   Clear
5:15 AM 15.8 °F - 14.0 °F 93% 30.28 in 10.0 mi Calm Calm - N/A   Clear
5:35 AM 15.8 °F - 12.2 °F 86% 30.29 in 10.0 mi Calm Calm - N/A   Clear
5:55 AM 14.0 °F - 12.2 °F 93% 30.28 in 10.0 mi Calm Calm - N/A   Clear
6:15 AM 15.8 °F - 12.2 °F 86% 30.28 in 10.0 mi Calm Calm - N/A   Clear
6:35 AM 14.0 °F - 12.2 °F 93% 30.28 in 10.0 mi Calm Calm - N/A   Clear
6:55 AM 14.0 °F - 12.2 °F 93% 30.29 in 10.0 mi Calm Calm - N/A   Clear
7:15 AM 15.8 °F - 12.2 °F 86% 30.29 in 10.0 mi Calm Calm - N/A   Clear
7:35 AM 15.8 °F - 12.2 °F 86% 30.29 in 10.0 mi Calm Calm - N/A   Clear
7:55 AM 15.8 °F - 12.2 °F 86% 30.29 in 10.0 mi Calm Calm - N/A   Clear
8:15 AM 19.4 °F - 15.8 °F 86% 30.28 in 10.0 mi Calm Calm - N/A   Clear
8:35 AM 21.2 °F - 15.8 °F 80% 30.28 in 10.0 mi Calm Calm - N/A   Clear
8:55 AM 23.0 °F - 17.6 °F 80% 30.28 in 10.0 mi Calm Calm - N/A   Clear
9:15 AM 26.6 °F - 17.6 °F 69% 30.29 in 10.0 mi Calm Calm - N/A   Clear
9:35 AM 28.4 °F - 19.4 °F 69% 30.28 in 10.0 mi Calm Calm - N/A   Clear
9:55 AM 30.2 °F - 19.4 °F 64% 30.27 in 10.0 mi Calm Calm - N/A   Clear
10:15 AM 32.0 °F - 17.6 °F 55% 30.27 in 10.0 mi Calm Calm - N/A   Clear
10:35 AM 33.8 °F - 15.8 °F 48% 30.27 in 10.0 mi Calm Calm - N/A   Clear
10:55 AM 35.6 °F 31.7 °F 17.6 °F 48% 30.25 in 10.0 mi ESE 4.6 mph - N/A   Clear
11:15 AM 35.6 °F 30.7 °F 17.6 °F 48% 30.25 in 10.0 mi East 5.8 mph - N/A   Clear
11:35 AM 37.4 °F 32.8 °F 17.6 °F 45% 30.24 in 10.0 mi ESE 5.8 mph - N/A   Clear
11:55 AM 39.2 °F 35.9 °F 17.6 °F 42% 30.24 in 10.0 mi SSE 4.6 mph - N/A   Clear
12:15 PM 39.2 °F 35.9 °F 17.6 °F 42% 30.23 in 10.0 mi SSE 4.6 mph - N/A   Clear
12:35 PM 39.2 °F 34.2 °F 17.6 °F 42% 30.21 in 10.0 mi SE 6.9 mph - N/A   Clear
12:55 PM 41.0 °F 36.4 °F 17.6 °F 39% 30.19 in 10.0 mi SE 6.9 mph - N/A   Clear
1:15 PM 41.0 °F 35.8 °F 17.6 °F 39% 30.17 in 10.0 mi ESE 8.1 mph - N/A   Partly Cloudy
1:35 PM 41.0 °F 36.4 °F 19.4 °F 42% 30.16 in 10.0 mi ESE 6.9 mph - N/A   Partly Cloudy
1:55 PM 42.8 °F 38.6 °F 15.8 °F 34% 30.15 in 10.0 mi SSE 6.9 mph - N/A   Scattered Clouds
2:15 PM 42.8 °F 38.6 °F 17.6 °F 36% 30.14 in 10.0 mi ESE 6.9 mph - N/A   Scattered Clouds
2:35 PM 42.8 °F 38.6 °F 17.6 °F 36% 30.14 in 10.0 mi ESE 6.9 mph - N/A   Scattered Clouds
2:55 PM 42.8 °F 36.6 °F 17.6 °F 36% 30.11 in 10.0 mi ESE 11.5 mph - N/A   Partly Cloudy
3:15 PM 44.6 °F 40.2 °F 17.6 °F 34% 30.11 in 10.0 mi SSE 8.1 mph - N/A   Partly Cloudy
3:35 PM 44.6 °F 40.7 °F 17.6 °F 34% 30.11 in 10.0 mi South 6.9 mph - N/A   Partly Cloudy
3:55 PM 42.8 °F 38.0 °F 17.6 °F 36% 30.11 in 10.0 mi SSE 8.1 mph - N/A   Mostly Cloudy
4:15 PM 44.6 °F 40.7 °F 17.6 °F 34% 30.09 in 10.0 mi SE 6.9 mph - N/A   Mostly Cloudy
4:35 PM 42.8 °F 40.1 °F 17.6 °F 36% 30.09 in 10.0 mi ESE 4.6 mph - N/A   Mostly Cloudy
4:55 PM 42.8 °F 39.3 °F 17.6 °F 36% 30.09 in 10.0 mi SSE 5.8 mph - N/A   Overcast
5:15 PM 42.8 °F 40.1 °F 17.6 °F 36% 30.09 in 10.0 mi SE 4.6 mph - N/A   Overcast
5:35 PM 42.8 °F - 17.6 °F 36% 30.09 in 10.0 mi Calm Calm - N/A   Overcast
5:55 PM 42.8 °F - 17.6 °F 36% 30.09 in 10.0 mi Calm Calm - N/A   Overcast
6:15 PM 42.8 °F 40.1 °F 17.6 °F 36% 30.09 in 10.0 mi South 4.6 mph - N/A   Overcast
6:35 PM 42.8 °F 35.8 °F 19.4 °F 39% 30.11 in 10.0 mi SSW 13.8 mph - N/A   Mostly Cloudy
6:55 PM 39.2 °F 33.0 °F 26.6 °F 61% 30.11 in 10.0 mi SSW 9.2 mph - N/A   Mostly Cloudy
7:15 PM 39.2 °F 32.5 °F 24.8 °F 56% 30.10 in 10.0 mi SSW 10.4 mph - N/A   Mostly Cloudy
7:35 PM 39.2 °F 34.2 °F 26.6 °F 61% 30.10 in 10.0 mi SSW 6.9 mph - N/A   Overcast
7:55 PM 39.2 °F 35.9 °F 26.6 °F 61% 30.09 in 10.0 mi SSW 4.6 mph - N/A   Overcast
8:15 PM 37.4 °F 33.8 °F 28.4 °F 70% 30.10 in 10.0 mi SW 4.6 mph - N/A   Overcast
8:35 PM 37.4 °F 30.8 °F 28.4 °F 70% 30.12 in 10.0 mi SSW 9.2 mph - N/A   Overcast
8:55 PM 37.4 °F 34.9 °F 28.4 °F 70% 30.11 in 10.0 mi SSW 3.5 mph - N/A   Overcast
9:15 PM 37.4 °F 34.9 °F 30.2 °F 75% 30.09 in 10.0 mi SE 3.5 mph - N/A   Overcast
9:35 PM 37.4 °F 33.8 °F 30.2 °F 75% 30.07 in 10.0 mi SE 4.6 mph - N/A   Overcast
9:55 PM 37.4 °F 32.8 °F 28.4 °F 70% 30.07 in 10.0 mi SSE 5.8 mph - N/A   Overcast
10:15 PM 37.4 °F 33.8 °F 30.2 °F 75% 30.07 in 10.0 mi SSE 4.6 mph - N/A   Overcast
10:35 PM 37.4 °F 32.1 °F 28.4 °F 70% 30.05 in 10.0 mi SSE 6.9 mph - N/A   Overcast
10:55 PM 37.4 °F 32.1 °F 28.4 °F 70% 30.06 in 10.0 mi SSE 6.9 mph - N/A   Overcast
11:15 PM 37.4 °F 32.8 °F 30.2 °F 75% 30.07 in 9.0 mi South 5.8 mph - N/A   Overcast
11:35 PM 37.4 °F 30.3 °F 30.2 °F 75% 30.07 in 9.0 mi South 10.4 mph - N/A   Overcast
11:55 PM 35.6 °F 30.7 °F 30.2 °F 81% 30.05 in 9.0 mi South 5.8 mph - N/A   Overcast